GW4311 Weather Reports


Display with metric or nautical units.
time (UTC)temp
F
wind
direction
speed
MPH
gust
MPH
rain 1hr
in
rain 24hr
in
rain mn
in
humidity
%
barometer
mb
20260510004521 53 196 0.0 5.0 0.00 0.00 0.00 97 1010.4
20260510003020 53 178 1.0 2.0 0.00 0.00 0.00 97 1010.3
20260510001525 53 51 1.0 4.0 0.00 0.00 0.00 97 1010.3
20260510000016 53 30 1.0 4.0 0.00 0.00 0.00 97 1010.6
20260509234515 53 108 1.0 5.0 0.00 0.00 0.00 97 1010.9
20260509233013 53 140 1.0 4.0 0.00 0.00 0.00 97 1010.8
20260509231511 54 325 0.0 2.0 0.00 0.00 0.00 97 1010.7
20260509230009 54 265 0.0 2.0 0.00 0.00 0.00 96 1010.9
20260509224507 55 137 0.0 2.0 0.00 0.00 0.00 95 1011.0
20260509223005 55 309 0.0 1.0 0.00 0.00 0.00 95 1011.1
20260509221505 56 93 0.0 1.0 0.00 0.00 0.00 94 1011.1
20260509220001 56 51 0.0 2.0 0.00 0.00 0.00 95 1011.0
20260509214600 56 153 1.0 2.0 0.00 0.00 0.00 94 1011.1
20260509213104 56 9 0.0 2.0 0.00 0.00 0.00 94 1011.0
20260509211605 57 93 0.0 2.0 0.00 0.00 0.00 93 1011.1
20260509204605 58 309 0.0 4.0 0.00 0.00 0.00 91 1011.0
20260509203058 59 67 1.0 2.0 0.00 0.00 0.00 89 1011.1
20260509201556 59 119 0.0 2.0 0.00 0.00 0.00 87 1011.2
20260509200055 62 309 0.0 2.0 0.00 0.00 0.00 85 1011.0
20260509194557 64 93 0.0 1.0 0.00 0.00 0.00 83 1010.8
20260509193056 66 9 0.0 2.0 0.00 0.00 0.00 80 1010.8
20260509191600 68 9 0.0 2.0 0.00 0.00 0.00 75 1010.7
20260509190057 70 137 0.0 2.0 0.00 0.00 0.00 70 1010.7
20260509184551 71 83 1.0 3.0 0.00 0.00 0.00 64 1010.5
20260509183051 73 126 1.0 4.0 0.00 0.00 0.00 63 1010.4
20260509181559 74 83 1.0 2.0 0.00 0.00 0.00 60 1010.4
20260509180049 75 108 1.0 5.0 0.00 0.00 0.00 57 1010.3
20260509174557 76 129 1.0 6.0 0.00 0.00 0.00 54 1010.3
20260509173057 77 115 2.0 7.0 0.00 0.00 0.00 53 1010.1
20260509171552 77 93 3.0 8.0 0.00 0.00 0.00 52 1010.2
20260509170047 79 162 1.0 6.0 0.00 0.00 0.00 50 1010.2
20260509164546 78 68 3.0 6.0 0.00 0.00 0.00 48 1010.3
20260509163045 78 93 5.0 8.0 0.00 0.00 0.00 49 1010.5
20260509161542 78 146 2.0 6.0 0.00 0.00 0.00 54 1010.5
20260509160041 78 153 5.0 10.0 0.00 0.00 0.00 51 1010.6
20260509154541 78 140 2.0 6.0 0.00 0.00 0.00 50 1010.8
20260509153038 79 105 2.0 8.0 0.00 0.00 0.00 50 1010.8
20260509151537 79 165 5.0 11.0 0.00 0.00 0.00 51 1010.8
20260509150036 77 93 3.0 8.0 0.00 0.00 0.00 52 1011.0
20260509144546 75 132 3.0 9.0 0.00 0.00 0.00 54 1011.3
20260509143039 76 41 3.0 11.0 0.00 0.00 0.00 52 1011.3
20260509141538 77 24 2.0 8.0 0.00 0.00 0.00 51 1011.4
20260509140053 80 67 4.0 9.0 0.00 0.00 0.00 47 1011.5
20260509134530 80 82 4.0 11.0 0.00 0.00 0.00 47 1011.8
20260509133027 79 265 9.0 14.0 0.00 0.00 0.00 49 1011.8
20260509131534 78 40 4.0 9.0 0.00 0.00 0.00 50 1011.9
20260509130027 77 51 2.0 11.0 0.00 0.00 0.00 51 1011.7
20260509124522 77 79 4.0 9.0 0.00 0.00 0.00 51 1012.0
20260509123023 77 237 6.0 14.0 0.00 0.00 0.00 52 1012.1
20260509121514 77 100 4.0 9.0 0.00 0.00 0.00 54 1012.2
20260509120012 76 175 6.0 11.0 0.00 0.00 0.00 54 1012.3
20260509114509 76 93 4.0 11.0 0.00 0.00 0.00 56 1012.5
20260509113005 74 9 2.0 9.0 0.00 0.00 0.00 56 1012.5
20260509111501 74 61 3.0 10.0 0.00 0.00 0.00 57 1012.8
20260509110056 73 34 4.0 9.0 0.00 0.00 0.00 59 1013.1
20260509104554 73 99 2.0 9.0 0.00 0.00 0.00 60 1013.2
20260509103049 72 51 4.0 11.0 0.00 0.00 0.00 63 1013.3
20260509101545 72 156 5.0 8.0 0.00 0.00 0.00 64 1013.4
20260509100041 71 291 3.0 8.0 0.00 0.00 0.00 65 1013.6
20260509094537 71 66 3.0 8.0 0.00 0.00 0.00 64 1013.6
20260509093033 70 48 3.0 7.0 0.00 0.00 0.00 68 1013.5
20260509091528 69 205 1.0 6.0 0.00 0.00 0.00 70 1013.8
20260509090024 68 93 3.0 7.0 0.00 0.00 0.00 70 1013.7
20260509084521 67 279 2.0 5.0 0.00 0.00 0.00 72 1013.9
20260509083015 67 48 3.0 6.0 0.00 0.00 0.00 74 1013.7
20260509081511 66 115 2.0 6.0 0.00 0.00 0.00 75 1014.0
20260509080006 64 48 1.0 6.0 0.00 0.00 0.00 78 1014.0
20260509074502 61 54 3.0 8.0 0.00 0.00 0.00 80 1013.9
20260509073057 60 117 4.0 6.0 0.00 0.00 0.00 81 1014.0
20260509071555 58 42 3.0 6.0 0.00 0.00 0.00 82 1014.0
20260509070049 56 51 3.0 5.0 0.00 0.00 0.00 86 1014.1
20260509064546 54 43 2.0 7.0 0.00 0.00 0.00 87 1014.4
20260509063038 51 93 2.0 6.0 0.00 0.00 0.00 90 1014.2
20260509061540 48 22 3.0 5.0 0.00 0.00 0.00 96 1014.3
20260509060031 47 9 0.0 2.0 0.00 0.00 0.00 98 1014.2
20260509054530 46 9 1.0 2.0 0.00 0.00 0.00 98 1014.1
20260509053034 45 59 0.0 2.0 0.00 0.00 0.00 98 1014.1
20260509051528 45 325 0.0 2.0 0.00 0.00 0.00 98 1014.0
20260509050029 45 93 1.0 4.0 0.00 0.00 0.00 97 1013.8
20260509044524 45 93 1.0 2.0 0.00 0.00 0.00 97 1013.6
20260509043021 45 93 0.0 2.0 0.00 0.00 0.00 97 1013.7
20260509041532 45 41 0.0 1.0 0.00 0.00 0.00 96 1013.7
20260509040018 46 153 1.0 2.0 0.00 0.00 0.00 96 1013.6
20260509034517 46 178 0.0 2.0 0.00 0.00 0.00 96 1013.6
20260509033016 46 265 0.0 2.0 0.00 0.00 0.00 96 1013.8
20260509031514 46 162 0.0 2.0 0.00 0.00 0.00 95 1013.7
20260509030015 47 9 0.0 2.0 0.00 0.00 0.00 95 1013.7
20260509024513 47 51 0.0 2.0 0.00 0.00 0.00 94 1013.9
20260509023008 47 178 0.0 2.0 0.00 0.00 0.00 94 1014.1
20260509021506 47 93 0.0 2.0 0.00 0.00 0.00 93 1014.1
20260509020004 48 325 0.0 2.0 0.00 0.00 0.00 93 1014.1
20260509014504 48 76 0.0 2.0 0.00 0.00 0.00 92 1014.1
20260509013109 48 126 0.0 1.0 0.00 0.00 0.00 91 1014.3
20260509011557 49 51 0.0 4.0 0.00 0.00 0.00 90 1014.3
20260509010057 50 51 1.0 2.0 0.00 0.00 0.00 88 1014.4